Hourly Data Report for February 24, 2020

TORONTO CITY
ONTARIO
Current Station Operator: ECCC - MSC

43°40'00.000" N
79°24'00.000" W
112.50 m
6158355
71508
XTO

Download Data

Hourly Data (February 2020)
Hourly Data Report for February 24, 2020
TIME
LST
Temp Definition
°C
Dew Point Definition
°C
Rel Hum Definition
%
Precip. Amount Definition
mm

Wind Dir Definition
10's deg

Wind Spd Definition
km/h
Visibility Definition
km
Stn Press Definition
kPa
Hmdx Definition


Wind Chill Definition


Weather Definition


00:00 6.2 -4.6 46 0.0       99.78     LegendNANA
01:00 5.8 -3.5 51 0.0       99.77     LegendNANA
02:00 5.6 -2.8 55 0.0       99.75     LegendNANA
03:00 5.1 -2.3 59 0.0       99.71     LegendNANA
04:00 4.0 -2.1 64 0.0       99.71     LegendNANA
05:00 3.6 -2.0 66 0.0       99.74     LegendNANA
06:00 3.1 -2.0 69 0.0       99.79     LegendNANA
07:00 2.6 -1.8 73 0.0       99.83     LegendNANA
08:00 2.9 -1.3 74 0.0       99.89     LegendNANA
09:00 4.3 -1.2 68 0.0       99.94     LegendNANA
10:00 5.7 -1.3 61 0.0       99.95     LegendNANA
11:00 6.9 -1.6 55 0.0       99.97     LegendNANA
12:00 8.5 -0.9 52 0.2       99.95     LegendNANA
13:00 9.2 -1.5 47 0.0       99.92     LegendNANA
14:00 9.0 -1.0 49 0.7       99.88     LegendNANA
15:00 8.4 -1.1 51 0.2       99.82     LegendNANA
16:00 9.1 -2.0 46 0.0       99.79     LegendNANA
17:00 8.0 -1.2 52 0.0       99.85     LegendNANA
18:00 6.7 -0.9 58 0.0       99.96     LegendNANA
19:00 6.9 -0.5 59 0.0       99.94     LegendNANA
20:00 6.7 -1.6 56 0.0       99.97     LegendNANA
21:00 6.3 -3.0 51 0.0       99.99     LegendNANA
22:00 5.8 -2.9 54 0.0       99.97     LegendNANA
23:00 5.2 -3.0 56 0.0       99.97     LegendNANA

Notes on Data Quality.

Legend

  • E = Estimated
  • M = Missing
  • NA = Not Available*
  • [empty] = Indicates an unobserved value
Date modified: